When you browse on this site, cookies collect data to enhance your experience and personalize the content and advertising you see.
Visit our Privacy Policy to learn more. By continuing to use the site, you agree to this use of cookies and data.
  • In Portugal
  • List of Countries
  • For 7 days
  • Water Temperature
  • Satellite Maps
  • Weather Map
  • Weather Widgets
  • user-avatar
    Login

    Hourly Weather Isfahan

    Today, 24 March, Sunday

    Time Temperature Precipitation Wind Pressure Humidity
    00:00 +13°C° 0 mm 1 mps 629 mmHg 37%
    01:00 +12°C° 0 mm 1 mps 628 mmHg 38%
    02:00 +12°C° 0 mm 1 mps 628 mmHg 39%
    03:00 +11°C° 0 mm 1 mps 627 mmHg 44%
    04:00 +11°C° 0 mm 1 mps 628 mmHg 44%
    05:00 +11°C° 0 mm 1 mps 628 mmHg 45%
    06:00 +10°C° 0 mm 1 mps 628 mmHg 45%
    07:00 +11°C° 0 mm 1 mps 628 mmHg 42%
    08:00 +11°C° 0 mm 0 mps 628 mmHg 39%
    09:00 +13°C° 0 mm 0 mps 629 mmHg 38%
    10:00 +15°C° 0 mm 1 mps 629 mmHg 35%
    11:00 +16°C° 0 mm 2 mps 629 mmHg 33%
    12:00 +17°C° 0 mm 3 mps 628 mmHg 31%
    13:00 +18°C° 0 mm 3 mps 628 mmHg 28%
    14:00 +18°C° 0 mm 3 mps 628 mmHg 26%
    15:00 +19°C° 0 mm 4 mps 628 mmHg 24%
    16:00 +19°C° 0 mm 3 mps 627 mmHg 24%
    17:00 +19°C° 0 mm 3 mps 627 mmHg 25%
    18:00 +18°C° 0 mm 2 mps 627 mmHg 25%
    19:00 +18°C° 0 mm 2 mps 627 mmHg 27%
    20:00 +17°C° 0 mm 2 mps 627 mmHg 29%
    21:00 +18°C° 0 mm 1 mps 627 mmHg 30%
    22:00 +16°C° 0 mm 1 mps 627 mmHg 32%
    23:00 +16°C° 0 mm 2 mps 627 mmHg 34%

    Tomorrow, 25 March, Monday

    Time Temperature Precipitation Wind Pressure Humidity
    00:00 +15°C° 0 mm 2 mps 627 mmHg 35%
    01:00 +15°C° 0 mm 2 mps 626 mmHg 37%
    02:00 +15°C° 0 mm 2 mps 626 mmHg 39%
    03:00 +14°C° 0 mm 2 mps 626 mmHg 41%
    04:00 +14°C° 0.1 mm 2 mps 626 mmHg 44%
    05:00 +13°C° 0.1 mm 3 mps 626 mmHg 46%
    06:00 +12°C° 0.1 mm 3 mps 626 mmHg 49%
    07:00 +13°C° 0 mm 3 mps 626 mmHg 45%
    08:00 +14°C° 0 mm 4 mps 626 mmHg 42%
    09:00 +15°C° 0 mm 4 mps 626 mmHg 38%
    10:00 +16°C° 0.2 mm 5 mps 626 mmHg 37%
    11:00 +17°C° 0.2 mm 6 mps 626 mmHg 36%
    12:00 +18°C° 0.2 mm 7 mps 626 mmHg 35%
    13:00 +20°C° 0.1 mm 8 mps 626 mmHg 33%
    14:00 +21°C° 0.1 mm 9 mps 626 mmHg 32%
    15:00 +22°C° 0.1 mm 10 mps 626 mmHg 30%
    16:00 +21°C° 0.1 mm 9 mps 625 mmHg 34%
    17:00 +20°C° 0.1 mm 7 mps 625 mmHg 37%
    18:00 +19°C° 0.1 mm 6 mps 625 mmHg 41%
    19:00 +17°C° 0.1 mm 5 mps 625 mmHg 44%
    20:00 +16°C° 0.1 mm 5 mps 626 mmHg 48%
    21:00 +17°C° 0.1 mm 4 mps 626 mmHg 51%
    22:00 +16°C° 0.2 mm 3 mps 626 mmHg 55%
    23:00 +14°C° 0.2 mm 3 mps 626 mmHg 59%

    Day after tomorrow, 26 March, Tuesday

    Time Temperature Precipitation Wind Pressure Humidity
    00:00 +15°C° 0.2 mm 2 mps 626 mmHg 63%
    01:00 +14°C° 0.4 mm 2 mps 626 mmHg 62%
    02:00 +14°C° 0.4 mm 1 mps 626 mmHg 62%
    03:00 +13°C° 0.4 mm 1 mps 626 mmHg 61%
    04:00 +13°C° 0.4 mm 2 mps 626 mmHg 64%
    05:00 +13°C° 0.4 mm 2 mps 625 mmHg 68%
    06:00 +11°C° 0.4 mm 3 mps 625 mmHg 71%
    07:00 +12°C° 2.5 mm 2 mps 625 mmHg 76%
    08:00 +12°C° 2.5 mm 2 mps 626 mmHg 81%
    09:00 +12°C° 2.5 mm 1 mps 626 mmHg 86%
    10:00 +14°C° 0.2 mm 2 mps 626 mmHg 73%
    11:00 +16°C° 0.2 mm 3 mps 626 mmHg 60%
    12:00 +19°C° 0.2 mm 4 mps 627 mmHg 47%
    13:00 +19°C° 0.3 mm 6 mps 626 mmHg 42%
    14:00 +20°C° 0.3 mm 8 mps 626 mmHg 37%
    15:00 +19°C° 0.3 mm 10 mps 626 mmHg 32%
    16:00 +18°C° 0.1 mm 9 mps 626 mmHg 35%
    17:00 +17°C° 0.1 mm 9 mps 626 mmHg 38%
    18:00 +16°C° 0.1 mm 8 mps 626 mmHg 41%
    19:00 +15°C° 0 mm 7 mps 626 mmHg 41%
    20:00 +14°C° 0 mm 5 mps 627 mmHg 41%
    21:00 +13°C° 0 mm 4 mps 627 mmHg 41%
    22:00 +12°C° 0 mm 4 mps 627 mmHg 42%
    23:00 +12°C° 0 mm 4 mps 627 mmHg 43%

    27 March, Wednesday

    Time Temperature Precipitation Wind Pressure Humidity
    00:00 +11°C° 0 mm 4 mps 627 mmHg 44%
    01:00 +11°C° 0 mm 3 mps 627 mmHg 45%
    02:00 +10°C° 0 mm 2 mps 627 mmHg 47%
    03:00 +10°C° 0 mm 2 mps 627 mmHg 49%
    04:00 +11°C° 0 mm 1 mps 627 mmHg 50%
    05:00 +10°C° 0 mm 1 mps 628 mmHg 51%
    06:00 +10°C° 0 mm 1 mps 628 mmHg 52%
    07:00 +10°C° 0 mm 2 mps 629 mmHg 47%
    08:00 +12°C° 0 mm 2 mps 629 mmHg 42%
    09:00 +12°C° 0 mm 3 mps 630 mmHg 37%
    10:00 +13°C° 0 mm 4 mps 630 mmHg 31%
    11:00 +15°C° 0 mm 4 mps 630 mmHg 26%
    12:00 +16°C° 0 mm 5 mps 630 mmHg 21%
    13:00 +16°C° 0 mm 6 mps 630 mmHg 19%
    14:00 +17°C° 0 mm 6 mps 630 mmHg 17%
    15:00 +17°C° 0 mm 7 mps 630 mmHg 15%
    16:00 +16°C° 0 mm 6 mps 630 mmHg 16%
    17:00 +15°C° 0 mm 5 mps 630 mmHg 18%
    18:00 +15°C° 0 mm 4 mps 630 mmHg 19%
    19:00 +14°C° 0 mm 4 mps 630 mmHg 21%
    20:00 +13°C° 0 mm 3 mps 631 mmHg 23%
    21:00 +12°C° 0 mm 3 mps 631 mmHg 25%
    22:00 +13°C° 0 mm 2 mps 631 mmHg 27%
    23:00 +12°C° 0 mm 2 mps 630 mmHg 30%

    28 March, Thursday

    Time Temperature Precipitation Wind Pressure Humidity
    00:00 +12°C° 0 mm 2 mps 630 mmHg 32%
    01:00 +11°C° 0 mm 1 mps 630 mmHg 34%
    02:00 +11°C° 0 mm 1 mps 630 mmHg 36%
    03:00 +10°C° 0 mm 1 mps 630 mmHg 39%
    04:00 +10°C° 0 mm 1 mps 630 mmHg 40%
    05:00 +10°C° 0 mm 1 mps 630 mmHg 41%
    06:00 +9°C° 0 mm 1 mps 630 mmHg 42%
    07:00 +10°C° 0 mm 1 mps 630 mmHg 40%
    08:00 +11°C° 0 mm 1 mps 630 mmHg 37%
    09:00 +12°C° 0 mm 1 mps 631 mmHg 34%
    10:00 +13°C° 0 mm 1 mps 631 mmHg 31%
    11:00 +14°C° 0 mm 1 mps 631 mmHg 27%
    12:00 +16°C° 0 mm 1 mps 631 mmHg 23%
    13:00 +16°C° 0 mm 3 mps 631 mmHg 22%
    14:00 +15°C° 0 mm 5 mps 630 mmHg 21%
    15:00 +15°C° 0 mm 7 mps 630 mmHg 20%
    16:00 +15°C° 0.1 mm 6 mps 630 mmHg 20%
    17:00 +14°C° 0.1 mm 5 mps 630 mmHg 21%
    18:00 +13°C° 0.1 mm 5 mps 630 mmHg 21%
    19:00 +13°C° 0 mm 4 mps 631 mmHg 23%
    20:00 +12°C° 0 mm 4 mps 631 mmHg 25%
    21:00 +12°C° 0 mm 4 mps 631 mmHg 27%
    22:00 +11°C° 0 mm 3 mps 631 mmHg 29%
    23:00 +11°C° 0 mm 3 mps 631 mmHg 31%

    29 March, Friday

    Time Temperature Precipitation Wind Pressure Humidity
    00:00 +10°C° 0 mm 2 mps 630 mmHg 33%
    01:00 +10°C° 0 mm 2 mps 630 mmHg 35%
    02:00 +9°C° 0 mm 2 mps 630 mmHg 36%
    03:00 +10°C° 0 mm 1 mps 630 mmHg 38%
    04:00 +9°C° 0 mm 1 mps 630 mmHg 40%
    05:00 +9°C° 0 mm 1 mps 630 mmHg 41%
    06:00 +9°C° 0 mm 1 mps 630 mmHg 43%
    07:00 +10°C° 0 mm 1 mps 630 mmHg 40%
    08:00 +10°C° 0 mm 0 mps 631 mmHg 37%
    09:00 +10°C° 0 mm 0 mps 631 mmHg 35%
    10:00 +13°C° 0 mm 1 mps 631 mmHg 32%
    11:00 +14°C° 0 mm 1 mps 631 mmHg 29%
    12:00 +15°C° 0 mm 1 mps 630 mmHg 26%
    13:00 +15°C° 0 mm 1 mps 630 mmHg 24%
    14:00 +16°C° 0 mm 2 mps 630 mmHg 22%
    15:00 +17°C° 0 mm 2 mps 630 mmHg 19%
    16:00 +17°C° 0 mm 2 mps 630 mmHg 20%
    17:00 +16°C° 0 mm 2 mps 630 mmHg 21%
    18:00 +16°C° 0 mm 3 mps 630 mmHg 22%
    19:00 +16°C° 0 mm 2 mps 630 mmHg 24%
    20:00 +15°C° 0 mm 2 mps 630 mmHg 26%
    21:00 +15°C° 0 mm 1 mps 631 mmHg 28%
    22:00 +14°C° 0 mm 1 mps 630 mmHg 29%
    23:00 +14°C° 0 mm 1 mps 630 mmHg 30%
    Show more